User: anonymous   Login
Location: Bonn
(50.7330°N, 7.1000°E)
Time: 14:12:52
(UTC+02:00)
Language:

Tiangong - Orbit

View from above orbital plane
View from above orbital plane
View from above satellite
View from above satellite

Ground track
Ground track

The orbit data is extracted from the following two-line orbital elements,

1 48274U 21035A   21267.07551478  .00003209  00000-0  40610-4 0  9990
2 48274  41.4716  39.7870 0002164 316.1312 207.2626 15.61299202 23168
Epoch (UTC): 24 September 2021 01:48:44
Eccentricity: 0.0002164
inclination: 41.4716°
perigee height: 382 km
apogee height: 385 km
right ascension of ascending node: 39.7870°
argument of perigee: 316.1312°
revolutions per day: 15.61299202
mean anomaly at epoch: 207.2626°
orbit number at epoch: 2316

The dashed part of the orbit path shows where the satellite is in the earth's shadow,  

DLR